Tracking 30009 objects as of 7-Dec-2024
HD Live streaming from Space Station
objects crossing your sky now

NAVSTAR 79 (USA 304)

Track NAVSTAR 79 (USA 304) now!
NAVSTAR 79 (USA 304) is classified as:


NORAD ID: 45854
Int'l Code: 2020-041A
Perigee: 20,055.8 km
Apogee: 20,321.9 km
Inclination: 56.3 °
Period: 718.0 minutes
Semi major axis: 26559 km
RCS: Unknown
Launch date: June 30, 2020
Source: United States (US)
Launch site: AIR FORCE EASTERN TEST RANGE (AFETR)
PRN: 23
Your satellite tracking list
Your tracking list is empty




NASA's NSSDC Master Catalog

Two Line Element Set (TLE):
1 45854U 20041A   24341.81299476 -.00000048  00000-0  00000-0 0  9996
2 45854  56.2648  50.6599 0050093 197.0579 157.6625  2.00569470 32851
Source of the keplerian elements: AFSPC